Skip Page Navigation
NASA JPL Caltech
NASA Logo - Jet Propulsion Laboratory + View the NASA Portal
+ Center for Near-Earth Object Studies
JPL Home Earth Solar System Stars & Galaxies Technology
JPL Solar System Dynamics
BODIES ORBITS EPHEMERIDES TOOLS PHYSICAL DATA DISCOVERY FAQ SITE MAP
JPL Small-Body Database Browser
Search: [ help ]  
363067 (2000 CO101)
Classification: Apollo [NEO, PHA]          SPK-ID: 2363067
Ephemeris | Orbit Diagram | Orbital Elements | Mission Design | Physical Parameters | Discovery Circumstances | Close-Approach Data ]

[ show orbit diagram ]
Orbital Elements at Epoch 2459200.5 (2020-Dec-17.0) TDB
Reference: JPL 158 (heliocentric ecliptic J2000)
 Element Value Uncertainty (1-sigma)   Units 
e .09003697184354487 1.2396e-08  
a 1.076407465902861 1.2139e-09 au
q .9794909972031836 1.3313e-08 au
i 15.32222054817274 6.4985e-06 deg
node 353.0407107397006 2.2077e-06 deg
peri 64.95604206988676 1.1898e-05 deg
M 329.6731830690345 1.255e-05 deg
tp 2459234.862741712757
(2021-Jan-20.36274171)
1.4251e-05 TDB
period 407.9091796792346
1.12
6.8999e-07
1.889e-09
d
yr
n .8825493956353012 1.4929e-09 deg/d
Q 1.173323934602538 1.3231e-09 au
  Orbit Determination Parameters
   # obs. used (total)      908  
   # delay obs. used      6  
   # Doppler obs. used      0  
   data-arc span      7383 days (20.21 yr)  
   first obs. used      2000-02-04  
   last obs. used      2020-04-22  
   planetary ephem.      DE441  
   SB-pert. ephem.      SB441-N16  
   condition code      0  
   norm. resid. RMS      .33012  
   source      ORB  
   producer      Otto Matic  
   solution date      2021-Apr-14 09:41:57  

Additional Information
 Earth MOID = .0213919 au 
 Jupiter MOID = 3.93596 au 
 T_jup = 5.708 
[ show covariance matrix ]

Ephemeris | Orbit Diagram | Orbital Elements | Mission Design | Physical Parameters | Discovery Circumstances | Close-Approach Data ]

Physical Parameter Table
Parameter Symbol Value Units Sigma Reference Notes
absolute magnitude H 19.09   n/a E2021B25  
rotation period rot_per 5.120 h n/a LCDB (Rev. 2020-October); Warner et al., 2009 Result based on less than full coverage, so that the period may be wrong by 30 percent or so.
Published Reference List:
[Warner, B.D. (2010) Minor Planet Bull. 37, 112-118.]
geometric albedo albedo 0.110   0.194 EAR_A_COMPIL_5_NEOWISEDIAM_V1_0[neos] (http://adsabs.harvard.edu/abs/2011ApJ...743..156M)  
SMASSII spectral type spec_B Xk   n/a Binzel et al. (2004) Icarus 170, 259-294  

363067 (2000 CO101)          Discovered 2000-Feb-08 by LINEAR at Socorro
Reference: Last Updated: 2013-06-26

[ show close-approach data ]
Ephemeris | Orbit Diagram | Orbital Elements | Mission Design | Physical Parameters | Discovery Circumstances | Close-Approach Data ]
ABOUT SSD CREDITS/AWARDS PRIVACY/COPYRIGHT GLOSSARY LINKS
FirstGov 2021-May-08 11:13 UT
(server date/time)  
NASA Home Page
Site Manager:   Ryan S. Park
Webmaster  Alan B. Chamberlin